Flag for Sweden Weather past 2 weeks in Växjö, Sweden

Now
37 °F

Drizzle. Low clouds.


Feels Like: 30 °F
Forecast: 33 / 40 °F
Wind: 12 mph from Southwest

Location: Vaxjo Airport

Current Time: Mar 2, 2015 at 1:01:02 AM

Latest Report: Mar 2, 2015 at 12:20 AM


Visibility: 3 mi

Pressure: 29.30 "Hg

Humidity: 100%

Dew point: 37 °F

Location of VäxjöLocation

Historic Weather in Växjö — Graph

°F

Växjö temperature yesterday

Maximum temperature yesterday: 39 °F (at 10:50 PM)
Minimum temperature yesterday: 30 °F (at 12:20 AM)
Average temperature yesterday: 34 °F

Past Weeks' High & Low Weather Summary

 TemperatureHumidityPressure
High45 °F (Feb 18, 1:20 PM)100% (Feb 14, 11:50 PM)30.45 "Hg (Feb 14, 11:50 PM)
Low28 °F (Feb 14, 11:20 PM)65% (Feb 28, 3:20 PM)29.09 "Hg (Feb 21, 9:50 PM)
Average35 °F90%29.87 "Hg
* Reported Feb 14 11:20 PM — Mar 1 11:50 PM, Växjö, Weather by CustomWeather, © 2015

Note: Actual official high and low records may vary slightly from our data, if they occured in-between our weather recording intervals... More about our weather records

Advertising

Växjö weather history for previous 24 hours

 ConditionsComfort  
Time TempWeatherWind HumidityBarometerVisibility
11:50 PM
Sun, Mar 1
37 °FPartly cloudy.12 mph100%29.30 "HgN/A
11:20 PM39 °FMostly cloudy.12 mph93%29.30 "HgN/A
10:50 PM39 °FFog.14 mph93%29.30 "Hg6 mi
10:20 PM37 °FFog.13 mph100%29.30 "Hg6 mi
9:50 PM37 °FFog.12 mph100%29.30 "Hg4 mi
9:20 PM37 °FFog.14 mph100%29.30 "Hg4 mi
8:20 PM36 °FFog.12 mph100%29.33 "Hg2 mi
7:50 PM36 °FDrizzle. Low clouds.10 mph100%29.33 "Hg1 mi
7:20 PM36 °FFog.10 mph93%29.33 "Hg1 mi
6:50 PM36 °FFog.12 mph93%29.33 "Hg3 mi
6:20 PM34 °FLight rain. Low clouds.12 mph100%29.33 "HgN/A
5:50 PM34 °FLight rain. Low clouds.13 mph100%29.33 "Hg3 mi
5:20 PM34 °FFog.12 mph100%29.33 "Hg3 mi
4:50 PM34 °FLight rain. Low clouds.12 mph93%29.33 "Hg2 mi
4:20 PM34 °FLight snow. Cloudy.12 mph93%29.33 "Hg2 mi
3:50 PM34 °FRain. Mostly cloudy.13 mph93%29.33 "Hg2 mi
3:20 PM34 °FLight snow. Low clouds.15 mph93%29.36 "Hg4 mi
2:50 PM34 °FLight snow. Mostly cloudy.14 mph93%29.36 "Hg3 mi
2:20 PM34 °FSnow. Mostly cloudy.14 mph93%29.36 "Hg2 mi
1:50 PM34 °FSnow. More clouds than sun.16 mph93%29.39 "Hg2 mi
1:20 PM34 °FLight rain. Mostly cloudy.15 mph100%29.39 "Hg4 mi
12:50 PM36 °FLight rain. More clouds than sun.15 mph93%29.42 "Hg5 mi
12:20 PM36 °FRain. Partly sunny.18 mph87%29.42 "Hg5 mi
11:50 AM37 °FPartly sunny.18 mph81%29.42 "HgN/A
11:20 AM37 °FScattered clouds.17 mph75%29.45 "HgN/A
10:50 AM37 °FPassing clouds.15 mph75%29.45 "HgN/A
10:20 AM37 °FScattered clouds.15 mph75%29.47 "HgN/A
9:50 AM37 °FPassing clouds.14 mph75%29.47 "HgN/A
9:20 AM36 °FPassing clouds.14 mph81%29.50 "HgN/A
8:50 AM36 °FScattered clouds.13 mph87%29.53 "HgN/A
8:20 AM34 °FPartly sunny.12 mph93%29.53 "HgN/A
7:50 AM34 °FPartly sunny.13 mph93%29.56 "HgN/A
7:20 AM34 °FPartly sunny.12 mph93%29.56 "HgN/A
6:50 AM34 °FPassing clouds.10 mph93%29.59 "HgN/A
6:20 AM34 °FFog.13 mph93%29.59 "Hg6 mi
5:50 AM32 °FIce fog.13 mph100%29.62 "Hg6 mi
5:20 AM32 °FPassing clouds.12 mph93%29.62 "HgN/A
4:50 AM32 °FChilly.12 mph93%29.65 "HgN/A
4:20 AM32 °FChilly.9 mph93%29.65 "HgN/A
3:50 AM32 °FChilly.9 mph93%29.68 "HgN/A
3:20 AM32 °FChilly.10 mph93%29.71 "HgN/A
2:50 AM30 °FChilly.9 mph93%29.71 "HgN/A
2:20 AM30 °FChilly.8 mph93%29.74 "HgN/A
1:50 AM30 °FIce fog.7 mph93%29.74 "Hg6 mi
1:20 AM30 °FChilly.9 mph93%29.77 "HgN/A
Weather by CustomWeather, © 2015

See weather overviewHow to use our weather pages